{"data":{"norad_id":56700,"epoch":"2026-05-24T15:08:05.028864Z","epoch_age_seconds":100234,"freshness":"FRESH","line1":"1 56700U 23067N   26144.63061376  .00000897  00000+0  42119-4 0  9999","line2":"2 56700  43.0028 202.2416 0001889 273.1514  86.9121 15.27574664167315","mean_motion":15.27574664,"eccentricity":0.0001889,"inclination_deg":43.0028,"raan_deg":202.2416,"arg_perigee_deg":273.1514,"mean_anomaly_deg":86.9121,"bstar":4.2119e-5,"rev_number":16731,"period_min":94.267077998618,"perigee_km":481.768992918,"apogee_km":484.36115506156,"semimajor_km":6861.2020739898,"source":"CELESTRAK","updated_at":"2026-05-25T13:38:18.121141Z"}}